User: anonymous   Login
Location: Whitehorse
(60.7170°N, 135.0500°W)
Time: 13:58:57
(UTC-07:00)
Language:

Cosmos 2219 Rocket - Orbit

View from above orbital plane
View from above orbital plane
View from above satellite
View from above satellite

Ground track
Ground track

The orbit data is extracted from the following two-line orbital elements,

1 22220U 92076B   15115.55297392  .00000246  00000-0  14783-3 0  9995
2 22220 070.9994 268.6817 0011979 018.0181 046.2032 14.16362172159816
Epoch (UTC): 25 April 2015 13:16:16
Eccentricity: 0.0011979
inclination: 70.9994°
perigee height: 829 km
apogee height: 846 km
right ascension of ascending node: 268.6817°
argument of perigee: 18.0181°
revolutions per day: 14.16362172
mean anomaly at epoch: 46.2032°
orbit number at epoch: 15981

The dashed part of the orbit path shows where the satellite is in the earth's shadow,  

DLR